Precipitable_Water
0.46 0.47 0.46 0.45 0.46 0.46 0.48 0.48 0.50 0.53 0.57 0.62 0.64 0.65 0.64 0.66 0.66 0.67 0.72 0.74 0.77 0.77 0.82 0.84 0.86 0.89 0.86 0.80 0.77 0.78 0.79 0.82 0.91 0.91 1.00 1.13 1.26 1.30 1.27 1.30 1.39 1.42 1.44
0.43 0.45 0.45 0.45 0.45 0.44 0.44 0.46 0.49 0.52 0.54 0.57 0.59 0.62 0.63 0.64 0.63 0.65 0.66 0.67 0.71 0.77 0.78 0.76 0.74 0.73 0.75 0.76 0.74 0.76 0.71 0.73 0.79 0.70 0.74 0.72 0.88 1.11 1.24 1.31 1.34 1.38 1.45
0.41 0.44 0.45 0.45 0.45 0.43 0.43 0.45 0.47 0.49 0.52 0.55 0.58 0.60 0.61 0.59 0.57 0.56 0.58 0.62 0.66 0.69 0.69 0.75 0.77 0.76 0.75 0.70 0.72 0.72 0.68 0.64 0.72 0.73 0.65 0.59 0.63 0.81 1.07 1.15 1.28 1.31 1.38
0.44 0.45 0.46 0.46 0.45 0.45 0.44 0.44 0.44 0.45 0.46 0.48 0.49 0.50 0.49 0.48 0.50 0.50 0.51 0.53 0.57 0.58 0.63 0.65 0.66 0.72 0.77 0.75 0.73 0.73 0.71 0.69 0.62 0.69 0.73 0.74 0.71 0.62 0.64 0.99 1.15 1.29 1.32
0.44 0.45 0.47 0.47 0.47 0.46 0.45 0.44 0.43 0.42 0.43 0.42 0.41 0.39 0.38 0.38 0.39 0.40 0.39 0.41 0.43 0.46 0.49 0.55 0.61 0.63 0.66 0.72 0.76 0.76 0.73 0.72 0.68 0.66 0.66 0.67 0.68 0.71 0.65 0.56 0.80 1.09 1.23
0.45 0.46 0.48 0.49 0.48 0.48 0.46 0.46 0.45 0.43 0.42 0.40 0.39 0.36 0.33 0.32 0.31 0.30 0.30 0.31 0.32 0.34 0.36 0.39 0.43 0.47 0.51 0.56 0.64 0.72 0.74 0.74 0.72 0.71 0.69 0.65 0.60 0.58 0.58 0.56 0.59 0.63 0.82
0.44 0.46 0.46 0.46 0.47 0.47 0.47 0.47 0.45 0.42 0.42 0.39 0.37 0.35 0.34 0.33 0.31 0.30 0.29 0.30 0.31 0.31 0.33 0.35 0.37 0.40 0.44 0.46 0.47 0.52 0.61 0.68 0.69 0.69 0.69 0.70 0.67 0.66 0.61 0.57 0.55 0.57 0.70
0.46 0.47 0.48 0.48 0.47 0.47 0.48 0.47 0.44 0.42 0.41 0.39 0.37 0.36 0.35 0.33 0.31 0.31 0.30 0.30 0.32 0.33 0.34 0.34 0.34 0.35 0.38 0.40 0.42 0.43 0.43 0.50 0.56 0.60 0.67 0.67 0.66 0.68 0.67 0.61 0.58 0.55 0.63
0.46 0.49 0.51 0.50 0.48 0.49 0.48 0.47 0.44 0.41 0.39 0.38 0.37 0.35 0.34 0.32 0.31 0.31 0.30 0.30 0.33 0.34 0.36 0.36 0.35 0.36 0.38 0.42 0.44 0.45 0.45 0.43 0.44 0.47 0.50 0.55 0.61 0.63 0.63 0.64 0.65 0.61 0.55
0.48 0.51 0.52 0.50 0.50 0.51 0.50 0.47 0.44 0.42 0.40 0.38 0.36 0.35 0.34 0.34 0.34 0.33 0.34 0.37 0.40 0.42 0.43 0.43 0.43 0.44 0.45 0.46 0.47 0.45 0.45 0.44 0.42 0.41 0.42 0.43 0.45 0.49 0.54 0.57 0.61 0.62 0.61
0.50 0.52 0.54 0.55 0.54 0.53 0.50 0.47 0.45 0.42 0.39 0.38 0.37 0.36 0.37 0.39 0.39 0.38 0.38 0.38 0.39 0.39 0.40 0.41 0.41 0.41 0.42 0.43 0.42 0.39 0.39 0.39 0.42 0.43 0.40 0.38 0.41 0.41 0.42 0.44 0.47 0.49 0.52
0.53 0.55 0.55 0.55 0.53 0.52 0.50 0.47 0.44 0.41 0.39 0.38 0.36 0.36 0.37 0.36 0.36 0.38 0.38 0.37 0.38 0.39 0.39 0.39 0.39 0.39 0.40 0.41 0.42 0.41 0.40 0.36 0.35 0.37 0.37 0.36 0.39 0.39 0.40 0.39 0.38 0.39 0.44
0.55 0.56 0.55 0.53 0.53 0.53 0.49 0.45 0.42 0.39 0.37 0.36 0.36 0.36 0.36 0.36 0.37 0.35 0.35 0.37 0.38 0.36 0.38 0.39 0.39 0.39 0.40 0.42 0.44 0.43 0.41 0.40 0.37 0.35 0.34 0.33 0.34 0.34 0.34 0.35 0.35 0.36 0.37
0.55 0.56 0.56 0.56 0.53 0.48 0.46 0.43 0.40 0.39 0.39 0.37 0.36 0.37 0.38 0.38 0.36 0.34 0.33 0.34 0.36 0.35 0.35 0.37 0.37 0.37 0.37 0.39 0.42 0.42 0.40 0.37 0.35 0.34 0.32 0.32 0.34 0.33 0.33 0.32 0.33 0.33 0.34
0.55 0.54 0.52 0.49 0.48 0.47 0.44 0.41 0.39 0.38 0.37 0.34 0.34 0.37 0.38 0.37 0.36 0.35 0.35 0.34 0.33 0.33 0.34 0.34 0.34 0.35 0.33 0.33 0.38 0.39 0.37 0.34 0.32 0.30 0.29 0.29 0.32 0.32 0.32 0.32 0.32 0.32 0.31
0.52 0.53 0.52 0.48 0.43 0.41 0.39 0.38 0.36 0.36 0.34 0.34 0.35 0.37 0.36 0.34 0.33 0.33 0.33 0.33 0.32 0.32 0.32 0.31 0.31 0.30 0.30 0.32 0.35 0.36 0.34 0.32 0.30 0.28 0.27 0.27 0.27 0.29 0.29 0.30 0.31 0.31 0.30
0.53 0.49 0.46 0.43 0.39 0.37 0.36 0.34 0.34 0.35 0.34 0.34 0.34 0.34 0.33 0.31 0.31 0.31 0.31 0.31 0.31 0.31 0.29 0.29 0.29 0.28 0.26 0.28 0.30 0.32 0.31 0.28 0.27 0.27 0.26 0.26 0.26 0.26 0.27 0.28 0.28 0.27 0.28
0.46 0.44 0.42 0.40 0.38 0.36 0.34 0.34 0.33 0.33 0.32 0.33 0.32 0.32 0.31 0.30 0.30 0.30 0.29 0.29 0.29 0.28 0.28 0.27 0.26 0.25 0.24 0.25 0.26 0.28 0.27 0.25 0.25 0.24 0.24 0.24 0.24 0.24 0.27 0.27 0.25 0.25 0.26
0.44 0.43 0.42 0.39 0.36 0.35 0.34 0.33 0.32 0.32 0.32 0.30 0.30 0.30 0.30 0.29 0.30 0.29 0.29 0.28 0.27 0.26 0.25 0.25 0.24 0.22 0.22 0.22 0.24 0.25 0.23 0.21 0.21 0.22 0.23 0.23 0.22 0.22 0.24 0.24 0.22 0.23 0.24
0.44 0.40 0.38 0.36 0.34 0.34 0.33 0.31 0.29 0.29 0.28 0.29 0.29 0.29 0.29 0.29 0.28 0.27 0.26 0.25 0.25 0.23 0.23 0.22 0.21 0.20 0.19 0.20 0.22 0.23 0.22 0.20 0.19 0.20 0.20 0.20 0.20 0.21 0.23 0.24 0.24 0.21 0.22
0.39 0.37 0.34 0.32 0.31 0.31 0.30 0.28 0.28 0.27 0.28 0.29 0.28 0.27 0.27 0.26 0.25 0.24 0.24 0.23 0.22 0.20 0.19 0.19 0.19 0.19 0.19 0.19 0.21 0.21 0.22 0.19 0.19 0.18 0.18 0.18 0.18 0.21 0.22 0.25 0.22 0.21 0.23
0.35 0.33 0.31 0.29 0.29 0.29 0.28 0.26 0.26 0.27 0.27 0.26 0.24 0.24 0.23 0.23 0.22 0.21 0.20 0.20 0.19 0.18 0.17 0.16 0.17 0.18 0.18 0.18 0.19 0.20 0.21 0.21 0.19 0.18 0.18 0.17 0.19 0.22 0.22 0.21 0.19 0.19 0.20
0.32 0.31 0.29 0.28 0.28 0.28 0.27 0.25 0.24 0.24 0.23 0.22 0.21 0.20 0.20 0.19 0.19 0.18 0.17 0.17 0.17 0.17 0.16 0.15 0.16 0.16 0.16 0.17 0.17 0.18 0.20 0.20 0.19 0.19 0.18 0.19 0.20 0.20 0.18 0.17 0.17 0.15 0.13
0.29 0.29 0.27 0.26 0.25 0.26 0.25 0.24 0.23 0.22 0.20 0.19 0.18 0.17 0.17 0.16 0.17 0.17 0.16 0.15 0.15 0.14 0.14 0.14 0.15 0.15 0.15 0.16 0.16 0.17 0.19 0.19 0.18 0.17 0.19 0.20 0.19 0.17 0.16 0.14 0.14 0.13 0.12
0.28 0.27 0.25 0.24 0.23 0.23 0.23 0.22 0.20 0.18 0.17 0.16 0.16 0.15 0.15 0.15 0.15 0.16 0.15 0.14 0.15 0.15 0.14 0.15 0.16 0.15 0.15 0.16 0.19 0.20 0.19 0.20 0.20 0.21 0.18 0.16 0.15 0.14 0.13 0.13 0.12 0.13 0.12
0.26 0.24 0.23 0.23 0.22 0.21 0.19 0.18 0.17 0.17 0.15 0.14 0.14 0.15 0.15 0.15 0.15 0.15 0.14 0.16 0.17 0.18 0.18 0.18 0.18 0.18 0.18 0.19 0.19 0.20 0.19 0.19 0.21 0.16 0.14 0.13 0.12 0.12 0.11 0.11 0.12 0.12 0.12
Wind_Speed
14 14 14 14 15 15 16 17 17 17 17 15 14 15 15 15 14 15 15 17 20 22 23 25 26 27 28 31 34 35 36 38 38 39 39 40 41 41 40 41 41 43 43
13 14 14 15 16 16 17 18 18 18 18 17 16 15 15 15 16 16 17 17 18 20 23 25 26 28 29 30 31 33 35 36 37 39 40 39 39 40 40 38 37 42 45
12 14 15 15 16 17 18 18 18 18 18 18 17 16 16 17 17 18 18 19 20 20 20 22 25 27 28 30 30 31 33 35 35 35 37 37 38 37 36 38 37 35 38
13 14 15 16 17 18 18 19 19 19 18 18 18 18 18 18 20 21 21 21 21 22 22 22 23 23 24 26 29 30 31 32 33 35 36 37 38 38 37 35 33 32 30
14 14 16 17 18 18 19 19 19 19 19 20 19 19 19 20 21 22 22 23 23 24 24 24 24 23 24 24 26 27 28 29 31 32 34 36 37 38 38 38 38 36 34
16 16 17 18 18 19 20 20 21 21 21 21 20 19 19 20 22 24 25 25 25 25 25 24 23 23 24 24 25 26 26 27 28 29 30 31 33 35 37 38 38 39 37
18 18 19 20 20 21 21 22 22 22 22 21 21 20 21 23 24 26 26 27 27 27 27 26 25 25 25 25 24 24 25 26 27 28 28 29 29 31 33 34 36 36 36
18 20 22 23 22 22 22 23 23 23 23 23 22 24 25 26 27 28 29 29 30 29 28 27 26 25 25 24 24 24 24 24 25 26 28 29 29 30 31 32 32 34 34
20 22 23 24 23 24 24 24 24 24 25 24 25 26 27 28 29 30 30 31 31 31 30 29 28 27 26 26 26 26 26 26 26 26 26 27 29 29 30 31 31 32 33
22 24 25 25 25 25 25 26 25 26 26 26 27 28 29 30 31 32 32 33 33 33 32 31 30 29 29 28 28 27 27 27 26 26 26 26 26 27 29 30 30 31 32
25 27 28 27 26 26 27 28 28 29 29 29 30 30 31 33 34 34 34 34 34 33 31 30 29 29 28 27 27 26 25 25 26 25 25 25 26 26 27 27 29 29 31
27 29 28 27 27 28 29 31 31 31 32 32 32 32 33 34 35 35 35 35 35 33 31 30 29 28 27 26 25 24 24 23 24 25 25 24 25 25 26 26 27 28 29
28 29 29 29 30 31 32 33 33 32 33 34 34 34 35 36 36 36 36 36 35 33 31 29 28 27 26 25 25 24 23 23 23 24 24 25 24 25 25 27 27 28 29
28 29 30 32 33 33 34 33 33 34 34 35 36 36 36 37 37 37 36 35 34 33 31 29 27 26 25 25 24 24 23 23 23 23 23 24 25 25 26 26 27 29 29
27 29 32 34 34 34 33 33 33 34 36 36 36 36 37 37 38 37 36 35 33 31 30 28 27 26 25 25 25 24 24 24 24 24 24 24 25 25 26 26 28 29 30
29 32 34 35 35 34 33 33 34 36 36 36 36 36 37 37 37 35 34 33 31 29 28 27 26 26 25 25 25 25 25 25 25 25 25 25 26 26 27 27 28 28 30
32 32 34 35 36 35 34 34 35 36 36 37 36 36 36 36 34 33 32 30 28 27 26 25 25 25 25 25 25 25 25 25 26 26 26 27 27 27 28 29 29 30 30
32 34 36 37 36 36 35 35 35 36 36 36 35 35 34 33 32 30 29 28 26 25 24 23 24 24 24 25 25 25 26 26 26 26 26 27 27 28 29 29 30 30 31
34 37 37 37 36 35 36 36 36 35 34 33 32 31 31 31 30 28 27 26 24 23 22 22 22 23 24 24 24 25 25 25 26 26 26 26 27 28 29 29 29 30 31
36 37 37 37 37 37 37 36 35 32 31 31 30 30 30 28 27 26 24 23 22 22 22 21 21 22 22 22 23 23 23 23 23 24 25 26 26 27 28 29 29 29 31
36 37 37 37 37 36 35 33 32 30 31 30 29 29 28 27 26 24 23 22 22 21 21 21 20 20 20 20 20 20 20 21 21 22 23 24 26 26 28 29 30 31 30
37 37 37 36 35 35 34 32 31 30 30 28 28 28 27 26 25 24 23 22 21 21 20 20 19 19 18 18 18 19 19 20 21 22 23 25 26 28 28 29 30 32 33
37 37 36 36 36 35 33 31 30 29 28 28 28 28 27 26 25 24 23 22 21 20 19 18 18 18 18 18 18 18 19 21 22 23 24 25 26 26 26 29 31 33 34
37 37 37 37 36 35 32 31 30 29 29 29 28 27 26 26 24 23 22 21 20 19 19 18 18 18 18 18 18 19 20 21 23 24 25 25 24 26 28 30 31 33 34
38 38 37 36 34 32 32 31 31 30 29 29 28 27 26 25 24 23 22 21 20 20 20 20 20 19 20 20 21 22 22 23 24 22 22 24 26 28 29 30 31 32 33
38 38 36 35 34 33 33 32 32 31 30 30 29 27 26 25 24 23 22 22 22 21 21 21 21 21 22 22 22 22 23 23 22 22 24 26 27 28 29 30 30 32 33
Wind_Direction
302 301 303 307 312 316 321 325 328 331 333 330 325 326 327 327 325 320 310 296 285 279 275 272 270 268 266 263 260 258 256 254 254 253 252 252 251 250 251 251 252 249 247
304 302 301 305 309 312 316 320 323 325 326 325 323 322 322 322 323 321 317 313 302 291 282 277 273 271 269 267 264 261 258 256 255 253 253 252 253 252 250 252 253 254 249
302 305 301 301 305 310 314 316 318 321 321 321 319 318 317 319 320 320 316 314 309 303 296 287 279 275 272 267 265 263 261 257 255 255 252 252 251 252 252 251 252 255 251
304 306 303 301 303 307 311 313 315 317 319 318 318 318 316 315 315 315 313 311 310 306 299 294 288 283 274 271 267 264 263 259 257 255 253 251 252 252 251 249 248 251 253
297 300 305 303 302 305 308 310 313 314 314 315 315 315 316 315 314 314 312 310 309 306 302 296 290 285 280 275 271 267 264 262 259 257 255 254 253 252 252 251 249 249 253
294 296 303 303 302 303 305 307 309 310 311 311 311 312 315 317 317 314 311 309 306 305 302 297 292 287 282 278 274 269 266 263 260 258 256 255 253 253 253 251 251 252 251
292 293 296 299 298 299 301 303 305 307 308 308 308 308 310 312 314 315 313 310 306 303 299 296 291 287 283 278 275 271 268 264 261 260 257 256 256 255 254 253 252 251 250
295 295 294 295 294 295 297 300 303 305 306 305 305 304 306 308 310 312 310 309 306 301 297 293 290 287 282 278 274 271 269 266 264 262 259 257 256 256 255 255 254 253 250
299 299 297 293 292 293 295 297 300 303 304 302 303 303 304 305 307 308 308 307 305 300 296 291 287 284 281 277 274 270 268 266 265 263 262 259 257 257 255 256 256 255 252
300 302 301 296 293 292 293 296 297 299 299 300 300 300 301 301 303 304 305 304 301 299 294 289 284 281 278 277 274 271 267 265 264 263 262 261 261 258 256 256 256 256 254
299 301 302 298 293 292 293 294 294 296 297 298 299 299 300 300 302 302 302 301 300 298 293 289 285 280 277 275 273 270 268 265 263 263 262 262 261 259 258 257 257 257 256
300 301 302 298 295 294 293 293 294 295 296 298 297 297 298 299 301 301 300 300 298 296 291 287 284 280 276 274 271 269 267 266 264 262 262 263 262 261 260 260 260 259 259
300 301 302 300 298 297 294 293 292 294 296 296 296 296 298 299 300 300 300 298 296 293 289 285 282 278 274 271 269 267 267 267 265 264 263 263 263 263 263 262 262 261 261
300 301 301 302 301 300 297 294 293 293 296 297 296 296 297 299 299 299 298 298 295 291 286 282 279 276 272 270 268 266 266 267 266 266 265 264 264 265 266 265 264 263 263
299 302 305 306 305 302 299 297 295 296 297 298 296 297 299 300 300 299 297 296 294 290 284 278 275 274 272 268 269 265 266 268 267 267 267 267 266 267 267 267 267 267 266
301 305 307 308 307 305 301 298 297 297 297 299 297 298 300 300 300 299 297 296 293 290 283 277 273 272 270 269 270 268 266 268 269 268 268 269 268 269 269 269 270 270 269
303 306 307 309 309 305 302 299 298 298 299 299 298 299 301 301 300 298 297 296 293 289 284 277 273 272 271 270 270 269 267 269 269 270 271 270 270 271 271 271 271 271 270
304 306 307 308 308 305 303 302 300 300 299 299 299 300 301 300 299 298 296 295 291 289 284 279 275 273 272 271 271 271 269 269 269 270 271 272 272 272 273 272 273 273 272
304 305 307 307 307 305 304 303 301 301 300 300 301 301 302 301 299 297 295 293 290 289 285 282 279 276 273 273 272 272 272 271 271 271 271 272 273 275 276 275 275 275 274
303 304 305 305 305 305 304 303 302 301 301 302 302 302 301 301 299 297 294 292 289 288 286 283 281 279 276 276 274 274 273 272 273 272 272 274 275 277 276 276 277 277 277
303 304 304 304 305 304 304 303 302 301 301 301 301 301 300 299 298 295 294 291 289 288 287 284 283 281 279 277 276 275 274 274 274 275 276 277 279 278 279 279 278 278 275
303 304 304 304 304 305 303 301 300 301 300 299 300 300 299 298 296 295 292 290 288 288 287 285 283 281 281 278 279 278 277 277 279 279 280 281 282 282 281 281 281 280 280
303 304 304 303 303 302 301 301 301 300 299 299 300 298 297 296 294 292 291 287 286 285 285 282 282 282 281 281 280 279 281 283 283 283 284 285 285 285 283 285 285 284 283
303 303 303 302 301 300 299 299 299 298 298 298 298 296 296 295 293 290 287 285 283 282 281 280 281 282 283 283 282 282 286 287 288 288 287 287 286 287 289 289 289 288 287
302 302 303 302 301 300 298 298 298 296 296 296 296 294 293 293 292 290 285 282 280 278 277 278 279 280 281 283 283 286 287 289 290 287 289 290 290 291 292 291 291 290 290
302 302 302 300 299 298 297 297 296 294 293 294 294 292 290 290 289 288 286 281 278 277 277 278 279 280 281 283 285 287 288 289 290 290 291 293 294 294 294 294 294 294 293